{"data":{"norad_id":41725,"epoch":"2026-05-25T02:47:21.693120Z","epoch_age_seconds":75221,"freshness":"FRESH","line1":"1 41725U 16048A   26145.11622330 -.00000320  00000+0  00000+0 0  9998","line2":"2 41725   3.8072  43.2367 0006335  34.2605 308.4687  1.00270510 36037","mean_motion":1.0027051,"eccentricity":0.0006335,"inclination_deg":3.8072,"raan_deg":43.2367,"arg_perigee_deg":34.2605,"mean_anomaly_deg":308.4687,"bstar":0,"rev_number":3603,"period_min":1436.1151648675,"perigee_km":35760.240809631,"apogee_km":35813.663977893,"semimajor_km":42165.089393762,"source":"CELESTRAK","updated_at":"2026-05-25T13:38:14.005392Z"}}